Regional Weather Roundup
Issued by NWS Goodland, KS

Home | Current Version | Previous Version | Graphics & Text | Print | Product List | Glossary On
Versions: 1 2 3 4 5 6 7 8 9 10 11 12 13 14 15 16 17 18 19 20 21 22 23 24 25 26 27 28 29 30 31 32 33 34 35 36 37 38 39 40 41 42 43 44 45 46 47 48 49 50
568
ASUS43 KGLD 111159
RWRGLD

GOODLAND FORECAST AREA HOURLY WEATHER ROUNDUP
NATIONAL WEATHER SERVICE GOODLAND KS
500 AM MST THU FEB 11 2016

...OFFICIAL OBSERVATIONS...

CITY           SKY/WX    TMP DP  RH WIND       PRES   REMARKS
GOODLAND KS    CLOUDY    28  22  78 SW7       30.14F
HILL CITY KS   CLOUDY    24  21  88 NW7       30.21R
IMPERIAL NEB   CLOUDY    24  21  88 SW3       30.13S
MCCOOK NEB     CLOUDY    26  23  88 CALM      30.17R
AKRON CO       CLOUDY    32  20  61 SW13      30.14R
BURLINGTON CO  CLOUDY    29  20  69 NW13      30.15S WCI  19
LIMON CO       CLOUDY    22  15  75 W3        30.19R
$$

...UNOFFICIAL OBSERVATIONS...

CITY           SKY/WX    TMP DP  RH WIND       PRES   REMARKS
GOVE KS          N/A     27  32 100 MISG        N/A
LENORA KS        N/A     27  32 100 MISG        N/A
NORTON KS      CLOUDY    28  25  86 NE8       30.18S
SHARON SPRINGS   N/A     29  24  81 CALM        N/A
KIT CARSON CO    N/A     31  22  69 MISG        N/A
YUMA CO          N/A     29  23  78 W5          N/A
$$




USA.gov is the U.S. government's official web portal to all federal, state and local government web resources and services.